Total_Precipitation_Accumulation
2.72 2.68 2.59 2.52 2.33 2.38 2.71 2.95 2.83 2.83 2.73 2.55 2.31 2.11 1.97 1.90 1.83 1.96 2.09 2.23 2.22 2.25 2.44 2.57 2.39 2.16 2.07 1.94 1.76 1.55 1.46 1.43 1.29 1.06 0.95 0.86 0.76 0.76 0.78 0.83 0.83 0.72 0.69
3.12 3.25 3.10 2.94 2.56 2.44 2.51 2.77 2.84 3.04 2.98 2.79 2.22 2.09 2.05 2.05 2.10 2.04 2.19 2.69 2.70 2.33 2.33 2.60 2.76 2.70 2.54 2.35 2.14 1.92 1.78 1.67 1.42 1.15 1.06 1.00 0.88 0.79 0.86 0.96 0.95 0.78 0.63
3.33 3.29 3.10 2.76 2.45 2.42 2.59 2.58 2.59 2.85 2.68 2.56 2.45 2.48 2.43 2.33 2.21 2.18 2.28 2.75 2.74 2.38 2.23 2.28 2.56 2.78 2.89 2.98 2.87 2.75 2.47 2.11 1.74 1.39 1.17 1.02 0.91 0.79 0.80 0.93 1.01 0.90 0.72
2.87 2.94 2.64 2.32 2.34 2.47 2.58 2.75 2.64 2.72 2.76 2.85 2.90 2.86 2.71 2.56 2.14 2.01 1.93 2.05 2.32 2.02 2.13 2.34 2.41 2.49 2.88 3.32 3.49 3.69 3.38 2.71 2.11 1.67 1.39 1.16 1.00 0.85 0.77 0.82 0.93 0.92 0.78
2.20 2.37 2.30 2.25 2.23 2.41 2.45 2.30 2.66 2.89 2.90 2.92 2.72 2.76 2.40 2.26 2.04 1.80 1.77 1.72 1.87 1.99 1.99 2.06 2.17 2.22 2.65 3.35 3.95 4.42 4.28 3.58 2.81 2.30 1.96 1.59 1.35 1.07 0.91 0.87 0.88 0.87 0.78
2.00 2.25 2.23 2.16 2.16 2.35 2.48 2.60 2.89 3.01 2.71 2.65 2.42 2.30 2.02 1.66 1.62 1.61 1.49 1.55 1.68 1.66 1.80 1.98 2.21 2.02 2.45 3.00 3.64 4.31 4.79 4.52 3.68 3.06 2.75 2.43 2.14 1.69 1.25 1.02 0.91 0.88 0.83
2.14 2.39 2.25 2.29 2.12 2.21 2.24 2.34 2.59 2.71 2.35 2.46 2.93 2.52 1.92 1.54 1.54 1.43 1.42 1.50 1.56 1.63 1.85 2.14 2.34 2.39 2.43 2.43 2.69 3.40 4.37 4.85 4.55 3.86 3.45 3.14 2.83 2.30 1.70 1.37 1.17 1.00 0.94
2.08 2.11 2.27 2.12 2.06 2.19 2.19 2.25 2.46 2.45 2.16 2.36 2.87 2.99 2.44 2.04 1.73 1.38 1.36 1.41 1.55 1.78 1.88 1.93 2.33 2.62 2.61 2.93 2.56 2.58 3.31 4.19 4.66 4.45 4.02 3.45 3.02 2.58 2.16 1.90 1.59 1.34 1.17
1.84 1.88 1.89 1.96 2.06 1.86 2.01 2.19 2.32 2.41 2.29 2.23 2.50 2.95 2.73 2.37 2.02 1.64 1.51 1.60 1.80 1.95 2.01 2.15 2.25 2.47 2.66 3.12 3.01 2.77 2.76 3.07 3.96 4.72 4.72 4.02 3.15 2.59 2.38 2.33 2.20 1.82 1.53
1.65 1.68 1.69 1.84 1.92 1.86 2.10 1.83 1.95 2.21 2.43 2.25 2.27 2.33 2.39 2.61 2.57 2.14 1.78 1.66 1.77 1.91 1.99 2.00 2.06 2.34 2.58 2.92 3.22 2.94 2.65 2.49 2.84 3.78 4.50 4.41 3.69 2.89 2.54 2.63 2.97 2.80 2.25
1.61 1.46 1.57 1.73 1.83 1.88 1.96 1.90 2.02 1.98 2.05 2.11 2.20 2.20 2.34 2.57 2.42 2.33 2.13 1.90 1.81 1.66 1.72 1.84 2.02 2.26 2.42 2.68 3.03 2.74 2.61 2.35 2.27 2.59 3.25 3.74 3.78 3.46 3.16 3.15 3.63 3.97 3.72
1.66 1.49 1.52 1.73 1.81 1.84 1.86 1.91 1.92 1.85 1.93 2.04 2.09 2.12 2.30 2.34 2.28 2.37 2.23 2.05 1.94 1.67 1.65 1.72 1.93 2.09 2.17 2.28 2.09 2.07 2.09 2.19 2.12 2.01 2.13 2.47 2.91 3.22 3.31 3.59 4.09 4.61 4.90
1.55 1.54 1.51 1.78 1.88 1.84 1.81 1.91 1.90 1.89 2.00 2.07 2.10 2.14 2.20 2.16 2.19 2.37 2.42 2.16 2.00 1.80 1.87 1.83 1.83 1.97 1.97 2.18 2.08 1.89 1.79 1.90 1.81 1.70 1.64 1.75 2.05 2.44 2.79 3.11 3.54 4.08 4.58
1.48 1.68 1.79 1.82 1.80 1.82 1.83 2.07 1.93 1.94 2.03 2.06 1.98 2.31 2.28 2.12 2.34 2.56 2.72 2.77 2.45 2.22 2.21 2.01 1.84 1.83 1.85 1.92 1.95 1.95 1.81 1.67 1.51 1.44 1.43 1.50 1.60 1.86 2.13 2.38 2.68 2.94 3.19
1.52 1.69 1.84 1.94 1.86 1.82 1.92 2.13 2.09 2.13 2.24 2.15 2.14 2.39 2.34 2.22 2.29 2.38 2.66 2.95 3.00 2.72 2.57 2.35 2.11 1.98 1.90 1.90 2.01 1.83 1.80 1.81 1.57 1.42 1.44 1.45 1.52 1.61 1.64 1.63 1.75 1.86 2.00
1.68 1.75 1.71 1.75 1.75 1.72 1.84 2.14 2.15 2.19 2.38 2.33 2.29 2.32 2.33 2.22 2.31 2.32 2.45 2.81 3.10 3.13 2.83 2.23 2.14 2.04 1.95 1.76 1.88 1.70 1.72 1.86 1.64 1.47 1.37 1.29 1.29 1.33 1.35 1.42 1.53 1.57 1.63
1.76 1.72 1.67 1.70 1.68 1.58 1.64 1.83 1.94 2.13 2.27 2.34 2.31 2.34 2.33 2.45 2.51 2.41 2.51 2.63 2.87 3.06 2.72 2.21 2.27 2.42 2.37 2.14 1.95 1.77 1.65 1.61 1.60 1.58 1.31 1.22 1.23 1.20 1.26 1.34 1.39 1.42 1.49
1.81 1.79 1.74 1.71 1.58 1.57 1.66 1.75 1.89 2.06 2.21 2.31 2.41 2.50 2.29 2.39 2.52 2.47 2.48 2.50 2.62 2.91 2.80 2.64 2.58 2.65 2.56 2.30 2.07 1.80 1.50 1.37 1.42 1.64 1.37 1.21 1.15 1.17 1.22 1.25 1.21 1.19 1.19
1.80 1.85 1.85 1.77 1.71 1.74 1.82 1.86 1.91 2.04 2.16 2.24 2.34 2.35 2.31 2.44 2.34 2.41 2.50 2.46 2.46 2.52 2.64 2.61 2.49 2.55 2.47 2.27 2.08 1.82 1.58 1.54 1.39 1.42 1.35 1.23 1.17 1.15 1.16 1.13 1.08 1.06 1.07
1.72 1.72 1.70 1.78 1.83 1.86 1.88 1.87 1.86 1.88 1.95 2.03 2.03 1.95 1.90 1.95 2.03 2.22 2.22 2.23 2.31 2.38 2.46 2.40 2.37 2.43 2.43 2.46 2.29 1.99 1.84 1.67 1.49 1.28 1.27 1.25 1.24 1.19 1.15 1.10 1.00 0.98 1.01
1.56 1.71 1.74 1.84 1.91 1.88 1.77 1.81 1.81 1.73 1.88 1.84 1.71 1.66 1.67 1.76 1.78 1.87 1.79 1.90 2.09 2.16 2.21 2.28 2.35 2.50 2.50 2.62 2.48 2.20 2.05 1.91 1.64 1.39 1.33 1.24 1.22 1.17 1.16 1.17 1.11 1.01 0.94
1.61 1.70 1.76 1.88 1.94 1.79 1.84 1.86 1.86 1.83 1.85 1.80 1.75 1.69 1.55 1.54 1.53 1.56 1.57 1.62 1.78 1.92 2.09 2.25 2.31 2.40 2.46 2.41 2.37 2.25 2.14 1.97 1.69 1.51 1.61 1.58 1.38 1.35 1.47 1.42 1.32 1.06 0.91
1.68 1.77 1.91 1.97 1.94 2.02 1.94 1.77 1.75 1.70 1.75 1.78 1.82 1.79 1.51 1.33 1.45 1.41 1.53 1.51 1.48 1.53 1.63 1.80 1.92 2.05 2.26 2.34 2.42 2.34 2.34 2.21 1.91 1.65 1.59 1.48 1.39 1.43 1.61 1.75 1.49 1.07 0.95
1.85 1.96 2.00 1.92 1.88 1.95 1.89 1.55 1.43 1.34 1.47 1.58 1.65 1.72 1.71 1.60 1.57 1.57 1.62 1.62 1.55 1.52 1.61 1.60 1.64 1.85 2.19 2.48 2.52 2.47 2.50 2.37 2.06 1.71 1.60 1.51 1.37 1.34 1.22 1.23 1.30 1.05 0.89
2.10 2.16 2.19 2.13 1.99 1.97 1.81 1.45 1.29 1.22 1.36 1.45 1.51 1.51 1.52 1.44 1.48 1.39 1.40 1.47 1.47 1.42 1.41 1.42 1.44 1.56 1.83 2.20 2.40 2.43 2.51 2.41 2.17 1.85 1.64 1.59 1.39 1.30 1.19 1.07 1.09 1.16 0.99
2.27 2.28 2.17 2.03 1.92 1.91 1.88 1.55 1.34 1.25 1.37 1.46 1.57 1.54 1.52 1.47 1.45 1.29 1.23 1.30 1.28 1.28 1.36 1.36 1.33 1.33 1.42 1.72 2.04 2.03 2.11 2.24 2.03 1.79 1.44 1.36 1.30 1.23 1.21 1.05 0.94 0.96 0.98